Weather History for KSPG - December, 2011

Change the Weather History Date:

Thursday, December 1, 2011

  Actual Average Record
Temperature  
Mean Temperature 58 °F -  
Max Temperature 66 °F 74 °F 85 °F (1982)
Min Temperature 50 °F 59 °F 38 °F (1957)
Degree Days  
Heating Degree Days 7    
Growing Degree Days 8 (Base 50)    
Moisture  
Dew Point 50 °F    
Average Humidity 76    
Maximum Humidity 89    
Minimum Humidity 56    
Precipitation  
Precipitation 0.00 in - - ()
Sea Level Pressure  
Sea Level Pressure 30.17 in    
Wind  
Wind Speed 11 mph (NNE)    
Max Wind Speed 17 mph    
Max Gust Speed 25 mph    
Visibility 10 miles    
Events      
Averages and records for this station are not official NWS values.
T = Trace of Precipitation, MM = Missing Value Source: NWS Daily Summary

Daily Weather History Graph

Daily Weather History Graph

Search for Another Location

Airport or City:

Trip Planner

Search our weather history database for the weather conditions in past years. The results will help you decide how hot, cold, wet, or windy it might be!

Date:

Astronomy

Dec. 01, 2011 Rise Set
Actual Time 7:03 AM EST 5:34 PM EST
Civil Twilight 6:38 AM EST 6:00 PM EST
Nautical Twilight 6:09 AM EST 6:29 PM EST
Astronomical Twilight 5:41 AM EST 6:57 PM EST
Moon 12:09 PM EST (12/1) No Moon Set
Length of Visible Light 11h 21m
Length of Day
10h 31m
Waxing Crescent, 43% of the Moon is Illuminated
Dec 1
Waxing Crescent
Dec 2
First Quarter
Dec 10
Full
Dec 17
Last Quarter
Dec 24
New

Hourly Weather History & Observations

Time (EST) Temp. Dew Point Humidity Pressure Visibility Wind Dir Wind Speed Gust Speed Precip Events Conditions
12:26 AM 57.2 °F 51.8 °F 82% 30.10 in 10.0 mi NNE 10.4 mph - N/A   Mostly Cloudy
12:53 AM 57.0 °F 51.1 °F 81% 30.10 in 10.0 mi NNE 9.2 mph - N/A   Mostly Cloudy
1:24 AM 57.2 °F 51.8 °F 82% 30.11 in 10.0 mi NE 11.5 mph - N/A   Overcast
2:02 AM 55.4 °F 51.8 °F 88% 30.11 in 10.0 mi NE 15.0 mph - N/A   Mostly Cloudy
2:53 AM 55.0 °F 48.9 °F 80% 30.10 in 10.0 mi NNE 10.4 mph - N/A   Clear
3:53 AM 53.1 °F 46.0 °F 77% 30.11 in 10.0 mi North 9.2 mph - N/A   Clear
4:53 AM 52.0 °F 48.9 °F 89% 30.12 in 10.0 mi NNE 10.4 mph - N/A   Clear
5:53 AM 51.1 °F 46.9 °F 86% 30.15 in 10.0 mi North 9.2 mph - N/A   Clear
6:53 AM 50.0 °F 46.0 °F 86% 30.16 in 10.0 mi North 9.2 mph - N/A   Clear
7:53 AM 51.1 °F 46.0 °F 83% 30.18 in 10.0 mi North 9.2 mph - N/A   Clear
8:53 AM 53.1 °F 46.9 °F 80% 30.20 in 10.0 mi NNE 12.7 mph - N/A   Clear
9:53 AM 55.0 °F 46.9 °F 74% 30.21 in 10.0 mi NE 13.8 mph - N/A   Clear
10:53 AM 57.0 °F 46.9 °F 69% 30.22 in 10.0 mi NE 10.4 mph - N/A   Clear
11:53 AM 60.1 °F 48.9 °F 67% 30.20 in 10.0 mi NNE 9.2 mph - N/A   Clear
12:53 PM 62.1 °F 48.9 °F 62% 30.17 in 10.0 mi NNE 6.9 mph - N/A   Clear
1:53 PM 64.0 °F 48.9 °F 58% 30.15 in 10.0 mi NNE 10.4 mph - N/A   Clear
2:53 PM 66.0 °F 50.0 °F 56% 30.15 in 10.0 mi NNE 10.4 mph - N/A   Clear
4:53 PM 66.9 °F 52.0 °F 59% 30.17 in 10.0 mi NE 6.9 mph - N/A   Clear
5:53 PM 62.1 °F 53.1 °F 72% 30.19 in 10.0 mi North 10.4 mph - N/A   Clear
6:53 PM 61.0 °F 54.0 °F 78% 30.20 in 10.0 mi NNE 9.2 mph - N/A   Clear
7:53 PM 61.0 °F 55.0 °F 81% 30.22 in 10.0 mi NNE 9.2 mph - N/A   Clear
8:53 PM 63.0 °F 55.0 °F 75% 30.23 in 10.0 mi NE 16.1 mph - N/A   Clear
9:53 PM 63.0 °F 55.0 °F 75% 30.25 in 10.0 mi ENE 17.3 mph 25.3 mph N/A   Clear
10:53 PM 62.1 °F 55.0 °F 78% 30.26 in 10.0 mi NE 12.7 mph 21.9 mph N/A   Clear